RH
87 93 96 96 97 97 92 97 99 98 96 95 95 93 83 77 72 63 62 58 55 51 47 45 42 38 37 39 40 38 37 36 38 36 36 31 31 38
93 94 94 98 98 93 88 86 92 94 92 95 93 85 81 80 74 67 61 55 52 48 43 39 38 37 37 38 39 39 40 40 38 36 31 26 32 37
90 92 93 94 93 91 90 89 93 96 93 97 90 83 81 77 69 62 55 53 47 43 39 39 38 38 39 37 39 40 41 40 39 33 24 26 35 39
78 79 83 91 95 98 91 95 96 98 97 87 82 79 78 74 69 63 52 44 42 41 40 38 38 39 39 39 41 42 40 40 36 24 23 30 36 40
67 73 75 76 81 88 95 98 98 98 98 91 92 84 80 76 73 68 52 45 45 44 41 40 40 40 41 40 41 42 40 35 24 24 24 34 37 43
55 57 61 66 74 77 86 87 96 98 95 97 95 91 92 89 86 78 63 51 49 48 44 43 43 42 40 40 42 40 35 25 23 24 27 38 43 50
37 41 46 51 54 61 72 81 86 89 94 96 98 97 94 94 91 86 79 69 55 54 47 49 46 46 43 42 40 34 26 25 24 25 33 41 53 62
33 36 39 43 47 52 55 58 72 73 82 86 93 97 95 96 97 90 81 69 62 55 56 53 48 48 45 41 36 28 27 28 29 30 35 49 52 67
34 36 41 46 49 53 57 61 59 71 75 79 78 91 88 95 98 90 83 76 63 58 55 52 53 50 42 34 29 28 29 30 31 31 34 50 56 66
32 36 40 44 52 57 60 63 66 70 73 78 90 87 92 90 89 85 80 72 68 62 60 57 54 44 40 34 34 35 33 35 36 34 33 43 56 66
35 39 43 47 49 55 59 68 76 74 75 76 81 79 87 79 76 75 72 65 64 63 63 61 54 48 42 38 38 40 39 43 43 43 39 38 51 64
35 40 46 51 58 64 68 73 74 79 87 97 92 97 87 85 81 78 73 68 67 64 65 63 55 50 44 43 45 46 48 48 49 49 48 44 43 50
38 40 44 55 66 63 74 77 81 86 92 88 90 91 89 91 85 81 78 71 71 68 66 60 57 52 49 49 49 50 52 56 61 59 57 53 51 49
43 45 52 60 65 72 72 73 81 82 94 91 93 92 95 95 90 83 81 78 76 69 70 66 55 53 53 54 51 54 58 61 68 67 66 65 63 60
49 54 59 64 71 73 76 74 88 90 95 88 93 98 99 98 95 84 81 81 80 75 74 68 61 57 58 56 55 64 62 57 63 66 68 70 69 66
48 52 61 67 73 76 78 81 78 81 91 88 98 99 99 98 97 89 81 78 73 71 69 66 65 61 60 57 63 68 61 57 61 65 64 62 66 71
50 55 60 67 74 78 80 80 79 95 98 98 98 98 96 95 97 91 83 78 73 71 70 65 64 62 60 61 70 67 64 63 63 61 63 62 61 66
50 60 66 69 72 78 82 81 82 85 95 86 94 98 97 98 98 93 85 82 82 79 72 65 62 63 62 67 73 70 70 68 66 62 60 59 62 67
56 62 70 73 73 76 83 83 83 84 86 98 98 98 97 95 97 97 97 95 84 75 68 63 60 62 65 70 73 71 75 72 67 63 60 59 63 69
60 62 70 74 73 74 78 85 85 83 86 95 97 96 98 97 97 97 97 91 79 73 66 62 61 65 68 72 72 71 72 75 70 65 62 67 63 69
59 59 70 75 73 74 78 82 84 85 88 86 85 88 94 93 95 97 96 85 76 64 63 65 65 64 67 72 74 73 72 75 74 71 67 70 73 78
61 59 63 75 76 76 79 83 84 85 86 86 85 89 91 93 96 97 92 83 71 67 66 65 65 67 74 74 72 71 68 68 68 70 69 71 78 84
62 64 65 71 78 78 79 83 88 89 90 90 89 87 89 93 97 97 89 78 71 70 66 69 69 71 75 73 73 76 77 73 68 65 73 83 84 88